Tracking 29892 objects as of 21-Nov-2024
HD Live streaming from Space Station
objects crossing your sky now

DMSP 5D-2 F12 (USA 106)

Track DMSP 5D-2 F12 (USA 106) now!
10-day predictions
DMSP 5D-2 F12 (USA 106) is classified as:


NORAD ID: 23233
Int'l Code: 1994-057A
Perigee: 837.6 km
Apogee: 854.9 km
Inclination: 98.8 °
Period: 101.7 minutes
Semi major axis: 7217 km
RCS: Unknown
Launch date: August 29, 1994
Source: United States (US)
Launch site: AIR FORCE WESTERN TEST RANGE (AFWTR)

Near-polar orbits; investigate Earth's environment.
Your satellite tracking list
Your tracking list is empty




NASA's NSSDC Master Catalog

Two Line Element Set (TLE):
1 23233U 94057A   24326.15093333  .00000073  00000-0  59310-4 0  9994
2 23233  98.7558  17.9280 0011986 111.1606 249.0850 14.15940680561115
Source of the keplerian elements: McCants